• In Slovakia
  • List of Countries
  • For 7 days
  • Water Temperature
  • Satellite Maps
  • Weather Map
  • Weather Widgets
  • user-avatar
    Login

    Hourly Weather Bregenz

    Today, 22 October, Monday

    Time Temperature Precipitation Wind Pressure Humidity
    00:00 +2°C° 0 mm 1 mps 649 mmHg 81%
    01:00 +2°C° 0 mm 1 mps 649 mmHg 79%
    02:00 +2°C° 0 mm 1 mps 648 mmHg 78%
    03:00 +1°C° 0 mm 1 mps 648 mmHg 77%
    04:00 +1°C° 0 mm 1 mps 648 mmHg 76%
    05:00 +1°C° 0 mm 1 mps 648 mmHg 75%
    06:00 +1°C° 0 mm 1 mps 648 mmHg 73%
    07:00 +1°C° 0 mm 1 mps 648 mmHg 72%
    08:00 +3°C° 0 mm 1 mps 649 mmHg 66%
    09:00 +4°C° 0 mm 2 mps 649 mmHg 61%
    10:00 +6°C° 0 mm 2 mps 650 mmHg 55%
    11:00 +7°C° 0 mm 2 mps 650 mmHg 54%
    12:00 +8°C° 0 mm 2 mps 651 mmHg 53%
    13:00 +9°C° 0 mm 3 mps 651 mmHg 51%
    14:00 +8°C° 0 mm 2 mps 651 mmHg 56%
    15:00 +8°C° 0 mm 2 mps 651 mmHg 60%
    16:00 +7°C° 0 mm 2 mps 651 mmHg 65%
    17:00 +5°C° 0 mm 2 mps 651 mmHg 74%
    18:00 +3°C° 0 mm 2 mps 651 mmHg 83%
    19:00 +2°C° 0 mm 1 mps 651 mmHg 92%
    20:00 +2°C° 0 mm 1 mps 651 mmHg 92%
    21:00 +2°C° 0 mm 1 mps 652 mmHg 92%
    22:00 +2°C° 0 mm 1 mps 652 mmHg 92%
    23:00 +2°C° 0 mm 1 mps 652 mmHg 92%

    Tomorrow, 23 October, Tuesday

    Time Temperature Precipitation Wind Pressure Humidity
    00:00 +2°C° 0 mm 1 mps 652 mmHg 92%
    01:00 +2°C° 0 mm 1 mps 652 mmHg 93%
    02:00 +2°C° 0 mm 1 mps 652 mmHg 92%
    03:00 +1°C° 0 mm 1 mps 651 mmHg 91%
    04:00 +1°C° 0 mm 1 mps 651 mmHg 90%
    05:00 +1°C° 0 mm 1 mps 651 mmHg 90%
    06:00 +1°C° 0 mm 1 mps 651 mmHg 89%
    07:00 +1°C° 0 mm 1 mps 652 mmHg 89%
    08:00 +3°C° 0 mm 1 mps 652 mmHg 81%
    09:00 +5°C° 0 mm 1 mps 653 mmHg 73%
    10:00 +8°C° 0 mm 1 mps 653 mmHg 66%
    11:00 +9°C° 0 mm 1 mps 653 mmHg 62%
    12:00 +9°C° 0 mm 2 mps 653 mmHg 59%
    13:00 +10°C° 0 mm 2 mps 653 mmHg 55%
    14:00 +9°C° 0 mm 2 mps 652 mmHg 58%
    15:00 +9°C° 0 mm 2 mps 652 mmHg 61%
    16:00 +8°C° 0 mm 2 mps 652 mmHg 64%
    17:00 +6°C° 0 mm 2 mps 651 mmHg 72%
    18:00 +5°C° 0 mm 1 mps 651 mmHg 79%
    19:00 +4°C° 0 mm 1 mps 651 mmHg 86%
    20:00 +3°C° 0 mm 1 mps 651 mmHg 84%
    21:00 +3°C° 0 mm 1 mps 651 mmHg 81%
    22:00 +2°C° 0 mm 2 mps 651 mmHg 79%
    23:00 +2°C° 0 mm 2 mps 651 mmHg 76%

    Day after tomorrow, 24 October, Wednesday

    Time Temperature Precipitation Wind Pressure Humidity
    00:00 +2°C° 0 mm 2 mps 651 mmHg 73%
    01:00 +3°C° 0 mm 2 mps 650 mmHg 71%
    02:00 +3°C° 0 mm 2 mps 650 mmHg 67%
    03:00 +3°C° 0 mm 2 mps 650 mmHg 64%
    04:00 +3°C° 0 mm 2 mps 650 mmHg 61%
    05:00 +3°C° 0 mm 2 mps 650 mmHg 62%
    06:00 +4°C° 0 mm 2 mps 650 mmHg 63%
    07:00 +4°C° 0 mm 2 mps 650 mmHg 65%
    08:00 +4°C° 0.1 mm 2 mps 650 mmHg 67%
    09:00 +5°C° 0.1 mm 2 mps 650 mmHg 69%
    10:00 +5°C° 0.1 mm 2 mps 650 mmHg 71%
    11:00 +6°C° 0.1 mm 2 mps 650 mmHg 74%
    12:00 +6°C° 0.1 mm 2 mps 650 mmHg 77%
    13:00 +6°C° 0.1 mm 2 mps 650 mmHg 80%
    14:00 +6°C° 0.1 mm 2 mps 650 mmHg 82%
    15:00 +6°C° 0.1 mm 2 mps 650 mmHg 84%
    16:00 +6°C° 0.1 mm 2 mps 650 mmHg 86%
    17:00 +5°C° 0 mm 2 mps 650 mmHg 89%
    18:00 +6°C° 0 mm 1 mps 650 mmHg 91%
    19:00 +5°C° 0 mm 1 mps 650 mmHg 94%
    20:00 +5°C° 0 mm 1 mps 650 mmHg 94%
    21:00 +5°C° 0 mm 1 mps 650 mmHg 94%
    22:00 +5°C° 0 mm 1 mps 650 mmHg 94%
    23:00 +5°C° 0 mm 1 mps 650 mmHg 94%

    25 October, Thursday

    Time Temperature Precipitation Wind Pressure Humidity
    00:00 +5°C° 0 mm 1 mps 650 mmHg 95%
    01:00 +5°C° 0 mm 1 mps 650 mmHg 95%
    02:00 +4°C° 0 mm 1 mps 649 mmHg 95%
    03:00 +4°C° 0 mm 1 mps 649 mmHg 95%
    04:00 +4°C° 0 mm 1 mps 649 mmHg 95%
    05:00 +3°C° 0 mm 1 mps 649 mmHg 95%
    06:00 +3°C° 0 mm 1 mps 648 mmHg 94%
    07:00 +3°C° 0 mm 1 mps 648 mmHg 93%
    08:00 +5°C° 0 mm 1 mps 648 mmHg 85%
    09:00 +7°C° 0 mm 1 mps 649 mmHg 77%
    10:00 +10°C° 0 mm 1 mps 649 mmHg 68%
    11:00 +11°C° 0 mm 1 mps 649 mmHg 64%
    12:00 +12°C° 0 mm 1 mps 649 mmHg 60%
    13:00 +13°C° 0 mm 1 mps 649 mmHg 56%
    14:00 +12°C° 0 mm 1 mps 648 mmHg 61%
    15:00 +12°C° 0 mm 1 mps 648 mmHg 67%
    16:00 +11°C° 0 mm 1 mps 647 mmHg 72%
    17:00 +9°C° 0 mm 1 mps 647 mmHg 78%
    18:00 +7°C° 0 mm 1 mps 646 mmHg 84%
    19:00 +5°C° 0 mm 1 mps 646 mmHg 89%
    20:00 +5°C° 0 mm 1 mps 645 mmHg 88%
    21:00 +5°C° 0 mm 1 mps 645 mmHg 86%
    22:00 +5°C° 0 mm 1 mps 645 mmHg 84%
    23:00 +5°C° 0 mm 1 mps 645 mmHg 83%

    26 October, Friday

    Time Temperature Precipitation Wind Pressure Humidity
    00:00 +5°C° 0 mm 1 mps 644 mmHg 82%
    01:00 +5°C° 0 mm 1 mps 644 mmHg 80%
    02:00 +5°C° 0 mm 1 mps 644 mmHg 80%
    03:00 +4°C° 0 mm 1 mps 643 mmHg 79%
    04:00 +4°C° 0 mm 1 mps 643 mmHg 78%
    05:00 +3°C° 0 mm 2 mps 643 mmHg 78%
    06:00 +3°C° 0 mm 2 mps 642 mmHg 78%
    07:00 +3°C° 0 mm 2 mps 642 mmHg 78%
    08:00 +5°C° 0 mm 2 mps 643 mmHg 72%
    09:00 +8°C° 0 mm 1 mps 643 mmHg 66%
    10:00 +11°C° 0 mm 1 mps 643 mmHg 60%
    11:00 +11°C° 0 mm 1 mps 643 mmHg 58%
    12:00 +12°C° 0 mm 2 mps 643 mmHg 56%
    13:00 +13°C° 0 mm 2 mps 643 mmHg 54%
    14:00 +13°C° 0 mm 2 mps 642 mmHg 59%
    15:00 +12°C° 0 mm 1 mps 642 mmHg 64%
    16:00 +11°C° 0 mm 1 mps 641 mmHg 69%
    17:00 +10°C° 0 mm 1 mps 641 mmHg 75%
    18:00 +8°C° 0 mm 1 mps 640 mmHg 80%
    19:00 +7°C° 0 mm 1 mps 640 mmHg 86%
    20:00 +7°C° 0.2 mm 1 mps 639 mmHg 87%
    21:00 +6°C° 0.2 mm 2 mps 639 mmHg 88%
    22:00 +6°C° 0.2 mm 2 mps 639 mmHg 89%
    23:00 +6°C° 0.3 mm 2 mps 638 mmHg 89%

    27 October, Saturday

    Time Temperature Precipitation Wind Pressure Humidity
    00:00 +6°C° 0.3 mm 2 mps 637 mmHg 90%
    01:00 +6°C° 0.3 mm 2 mps 637 mmHg 90%
    02:00 +5°C° 0.5 mm 2 mps 636 mmHg 91%
    03:00 +6°C° 0.5 mm 1 mps 636 mmHg 92%
    04:00 +6°C° 0.5 mm 1 mps 635 mmHg 92%
    05:00 +5°C° 2.2 mm 2 mps 635 mmHg 93%
    06:00 +4°C° 2.2 mm 2 mps 635 mmHg 94%
    07:00 +3°C° 2.2 mm 3 mps 635 mmHg 95%
    08:00 +2°C° 3.1 mm 3 mps 635 mmHg 95%
    09:00 +2°C° 3.1 mm 2 mps 635 mmHg 95%
    10:00 +1°C° 3.1 mm 2 mps 635 mmHg 95%
    11:00 +1°C° 1.6 mm 2 mps 635 mmHg 95%
    12:00 +2°C° 1.6 mm 1 mps 635 mmHg 94%
    13:00 +1°C° 1.6 mm 1 mps 635 mmHg 94%
    14:00 +1°C° 1.1 mm 1 mps 634 mmHg 94%
    15:00 +1°C° 1.1 mm 1 mps 634 mmHg 95%
    16:00 +1°C° 1.1 mm 1 mps 634 mmHg 96%
    17:00 +1°C° 0.7 mm 1 mps 634 mmHg 96%
    18:00 +1°C° 0.7 mm 1 mps 634 mmHg 96%
    19:00 0°C° 0.7 mm 1 mps 634 mmHg 97%
    20:00 -2°C° 0.8 mm 2 mps 634 mmHg 97%
    21:00 -2°C° 0.8 mm 2 mps 634 mmHg 97%
    22:00 -2°C° 0.8 mm 2 mps 633 mmHg 97%
    23:00 -2°C° 0.8 mm 2 mps 633 mmHg 97%

    28 October, Sunday

    Time Temperature Precipitation Wind Pressure Humidity
    00:00 -2°C° 0.8 mm 2 mps 633 mmHg 97%
    01:00 -2°C° 0.8 mm 2 mps 633 mmHg 97%
    02:00 -2°C° 0.8 mm 2 mps 632 mmHg 97%
    03:00 -2°C° 0.8 mm 3 mps 632 mmHg 97%
    04:00 -2°C° 0.8 mm 3 mps 632 mmHg 96%
    05:00 -2°C° 1.5 mm 3 mps 632 mmHg 96%
    06:00 -4°C° 1.5 mm 3 mps 632 mmHg 96%
    07:00 -4°C° 1.5 mm 3 mps 632 mmHg 96%
    08:00 -3°C° 1.7 mm 2 mps 633 mmHg 96%
    09:00 -2°C° 1.7 mm 2 mps 633 mmHg 96%
    10:00 -2°C° 1.7 mm 2 mps 634 mmHg 96%
    11:00 -2°C° 1.4 mm 2 mps 634 mmHg 96%
    12:00 -2°C° 1.4 mm 2 mps 635 mmHg 96%
    13:00 -2°C° 1.4 mm 2 mps 635 mmHg 96%
    14:00 -2°C° 1.1 mm 2 mps 636 mmHg 96%
    15:00 -3°C° 1.1 mm 2 mps 636 mmHg 96%
    16:00 -3°C° 1.1 mm 2 mps 637 mmHg 96%
    17:00 -3°C° 0.6 mm 2 mps 637 mmHg 97%
    18:00 -1°C° 0.6 mm 1 mps 638 mmHg 97%
    19:00 -2°C° 0.6 mm 1 mps 638 mmHg 97%
    20:00 -2°C° 0.2 mm 1 mps 638 mmHg 97%
    21:00 -3°C° 0.2 mm 1 mps 639 mmHg 97%
    22:00 -3°C° 0.2 mm 1 mps 639 mmHg 96%
    23:00 -3°C° 0 mm 1 mps 639 mmHg 96%
    Show more